Terminal Aerodrome Forecast
Issued by NWS

Home | Current Version | Previous Version | Text Only | Print | Product List | Glossary Off
Versions: 1 2 3 4 5 6 7 8 9 10 11 12 13 14 15 16 17 18 19 20 21 22

000
FTUS43 KBIS 030239 AAA
TAFJMS
TAF AMD
KJMS 030239Z 0303/0324 18004KT P6SM SKC
     FM030600 35004KT 4SM FU SKC=

USA.gov is the U.S. government's official web portal to all federal, state and local government web resources and services.